Cork, Ireland

8:45 PM IST on October 17, 2017 (GMT +0100)
Cork

Weather History for EICK - August, 2014

Change the Weather History Date:

Monday, August 11, 2014

  Actual Average Record
Temperature  
Mean Temperature 56 °F -  
Max Temperature 64 °F 64 °F 73 °F (2003)
Min Temperature 49 °F 51 °F 46 °F (2015)
Degree Days  
Heating Degree Days 8    
Growing Degree Days 6 (Base 50)    
Moisture  
Dew Point 49 °F    
Average Humidity 79    
Maximum Humidity 100    
Minimum Humidity 48    
Precipitation  
Precipitation 0.08 in 0.12 in - ()
Sea Level Pressure  
Sea Level Pressure 29.73 in    
Wind  
Wind Speed 12 mph ()    
Max Wind Speed 21 mph    
Max Gust Speed 36 mph    
Visibility 8.3 miles    
Events Rain    
Averages and records for this station are not official NWS values.
T = Trace of Precipitation, MM = Missing Value Source: Averaged Metar Reports

Daily Weather History Graph

Daily Weather History Graph

Search for Another Location

Airport or City:

Trip Planner

Search our weather history database for the weather conditions in past years. The results will help you decide how hot, cold, wet, or windy it might be!

Date:

Astronomy

Aug. 11, 2014 Rise Set
Actual Time 6:11 AM IST 9:05 PM IST
Civil Twilight 5:32 AM IST 9:44 PM IST
Nautical Twilight 4:42 AM IST 10:34 PM IST
Astronomical Twilight 3:38 AM IST 11:36 PM IST
Moon 9:07 PM IST (8/11) 7:12 AM IST (8/11)
Length of Visible Light 16h 11m
Length of Day
14h 53m
Full, 99% of the Moon is Illuminated
Aug 11
Full
Aug 17
Last Quarter
Aug 25
New
Sep 2
First Quarter
Sep 9
Full

Hourly Weather History & Observations

Time (IST) Temp. Dew Point Humidity Pressure Visibility Wind Dir Wind Speed Gust Speed Precip Events Conditions
12:00 AM 52 °F 49 °F 85% 29.72 in 19 mi WSW 11.2 mph - -   Scattered Clouds
12:00 AM 51.8 °F 48.2 °F 88% 29.71 in 6.2 mi WSW 10.4 mph - N/A   Partly Cloudy
12:30 AM 51.8 °F 50.0 °F 94% 29.71 in 6.2 mi WSW 11.5 mph - N/A   Partly Cloudy
1:00 AM 51 °F 50 °F 93% 29.72 in 22 mi SW 11.2 mph - -   Scattered Clouds
1:00 AM 51.8 °F 50.0 °F 94% 29.71 in 6.2 mi SW 11.5 mph - N/A   Partly Cloudy
1:30 AM 51.8 °F 50.0 °F 94% 29.71 in 6.2 mi WSW 10.4 mph - N/A   Partly Cloudy
2:00 AM 52 °F 50 °F 91% 29.71 in 22 mi WSW 11.2 mph - -   Scattered Clouds
2:00 AM 51.8 °F 50.0 °F 94% 29.71 in - WSW 10.4 mph - N/A   Clear
2:30 AM 51.8 °F 50.0 °F 94% 29.71 in - WSW 13.8 mph - N/A   Clear
3:00 AM 53 °F 50 °F 87% 29.70 in 22 mi WSW 11.2 mph - -   Partly Cloudy
3:00 AM 51.8 °F 50.0 °F 94% 29.71 in - WSW 11.5 mph - N/A   Clear
3:30 AM 51.8 °F 50.0 °F 94% 29.68 in - WSW 11.5 mph - N/A   Clear
4:00 AM 51 °F 50 °F 93% 29.71 in 22 mi SW 11.2 mph - -   Scattered Clouds
4:00 AM 51.8 °F 50.0 °F 94% 29.68 in - SW 10.4 mph - N/A   Clear
4:30 AM 51.8 °F 50.0 °F 94% 29.68 in - SW 9.2 mph - N/A   Clear
5:00 AM 51 °F 49 °F 91% 29.71 in 22 mi SW 11.2 mph - -   Scattered Clouds
5:00 AM 50.0 °F 50.0 °F 100% 29.68 in - SW 11.5 mph - N/A   Clear
5:30 AM 50.0 °F 48.2 °F 94% 29.68 in 6.2 mi SW 8.1 mph - N/A   Partly Cloudy
6:00 AM 50 °F 48 °F 92% 29.71 in 22 mi SW 8.9 mph - -   Scattered Clouds
6:30 AM 50.0 °F 48.2 °F 94% 29.68 in 6.2 mi SW 6.9 mph - N/A   Partly Cloudy
7:00 AM 51 °F 50 °F 95% 29.71 in 22 mi WSW 8.9 mph - -   Scattered Clouds
7:00 AM 51.8 °F 50.0 °F 94% 29.68 in 6.2 mi WSW 9.2 mph - N/A   Partly Cloudy
7:30 AM 51.8 °F 50.0 °F 94% 29.68 in 6.2 mi WSW 11.5 mph - N/A   Partly Cloudy
8:00 AM 54 °F 51 °F 87% 29.71 in 28 mi WSW 11.2 mph - -   Scattered Clouds
8:00 AM 53.6 °F 51.8 °F 94% 29.68 in 6.2 mi WSW 11.5 mph - N/A   Partly Cloudy
8:30 AM 55.4 °F 51.8 °F 88% 29.71 in 6.2 mi WSW 13.8 mph - N/A   Partly Cloudy
9:00 AM 57 °F 52 °F 78% 29.72 in 28 mi WSW 13.4 mph - -   Scattered Clouds
9:00 AM 57.2 °F 51.8 °F 82% 29.71 in 6.2 mi WSW 12.7 mph - N/A   Partly Cloudy
9:30 AM 59.0 °F 51.8 °F 77% 29.71 in 6.2 mi WSW 15.0 mph - N/A   Scattered Clouds
10:00 AM 60 °F 52 °F 68% 29.72 in 31 mi WSW 15.7 mph - -   Scattered Clouds
10:00 AM 59.0 °F 51.8 °F 77% 29.71 in 6.2 mi WSW 15.0 mph - N/A   Partly Cloudy
10:30 AM 60.8 °F 51.8 °F 72% 29.71 in 6.2 mi WSW 15.0 mph - N/A   Mostly Cloudy
11:00 AM 54 °F 49 °F 79% 29.74 in 16 mi West 13.4 mph - - Rain Light Rain Showers
11:00 AM 55.4 °F 50.0 °F 82% 29.74 in 6.2 mi West 12.7 mph - N/A   Partly Cloudy
11:30 AM 59.0 °F 51.8 °F 77% 29.74 in 6.2 mi West 17.3 mph - N/A Rain Light Rain Showers
12:00 PM 60 °F 51 °F 63% 29.73 in 31 mi WSW 20.1 mph - - Rain Light Rain Showers
12:00 PM 60.8 °F 51.8 °F 72% 29.71 in 6.2 mi WSW 20.7 mph - N/A   Scattered Clouds
12:30 PM 62.6 °F 48.2 °F 59% 29.71 in 6.2 mi West 20.7 mph - N/A   Scattered Clouds
1:00 PM 63 °F 48 °F 48% 29.73 in 19 mi WSW 20.1 mph - - Rain Light Rain Showers
1:00 PM 62.6 °F 48.2 °F 59% 29.71 in 6.2 mi WSW 19.6 mph 35.7 mph N/A   Scattered Clouds
1:30 PM 62.6 °F 48.2 °F 59% 29.74 in 6.2 mi West 20.7 mph - N/A   Mostly Cloudy
2:00 PM 62 °F 48 °F 49% 29.73 in 31 mi West 15.7 mph - -   Mostly Cloudy
2:00 PM 62.6 °F 48.2 °F 59% 29.74 in 6.2 mi West 16.1 mph - N/A   Mostly Cloudy
2:30 PM 60.8 °F 48.2 °F 63% 29.74 in 6.2 mi WSW 17.3 mph - N/A   Scattered Clouds
3:00 PM 63 °F 50 °F 53% 29.74 in 16 mi WSW 15.7 mph - -   Mostly Cloudy
3:00 PM 62.6 °F 50.0 °F 63% 29.74 in 6.2 mi WSW 15.0 mph - N/A   Scattered Clouds
3:30 PM 57.2 °F 51.8 °F 82% 29.74 in 6.2 mi West 17.3 mph - N/A Rain Light Rain Showers
4:00 PM 58 °F 51 °F 72% 29.75 in 19 mi West 17.9 mph - - Rain Light Rain Showers
4:00 PM 57.2 °F 51.8 °F 82% 29.74 in 6.2 mi West 17.3 mph - N/A   Scattered Clouds
4:30 PM 55.4 °F 51.8 °F 88% 29.74 in 6.2 mi West 19.6 mph 31.1 mph N/A Rain Light Rain Showers
5:00 PM 60 °F 51 °F 65% 29.74 in 31 mi West 17.9 mph - - Rain Light Rain Showers
5:00 PM 59.0 °F 51.8 °F 77% 29.74 in 6.2 mi West 17.3 mph - N/A   Partly Cloudy
5:30 PM 59.0 °F 48.2 °F 67% 29.74 in 6.2 mi West 17.3 mph - N/A Rain Light Rain Showers
6:00 PM 61 °F 49 °F 56% 29.74 in 25 mi West 15.7 mph - - Rain Light Rain Showers
6:30 PM 60.8 °F 48.2 °F 63% 29.74 in 6.2 mi West 17.3 mph - N/A   Scattered Clouds
7:00 PM 58 °F 47 °F 56% 29.75 in 31 mi West 20.1 mph - -   Partly Cloudy
7:00 PM 59.0 °F 46.4 °F 63% 29.74 in 6.2 mi West 20.7 mph - N/A   Mostly Cloudy
7:30 PM 57.2 °F 46.4 °F 67% 29.74 in 6.2 mi WSW 13.8 mph - N/A   Scattered Clouds
8:00 PM 57 °F 47 °F 60% 29.76 in 25 mi West 15.7 mph - -   Scattered Clouds
8:00 PM 57.2 °F 46.4 °F 67% 29.74 in 6.2 mi West 15.0 mph - N/A   Partly Cloudy
8:30 PM 55.4 °F 46.4 °F 72% 29.74 in 6.2 mi West 13.8 mph - N/A   Partly Cloudy
9:00 PM 54 °F 47 °F 69% 29.77 in 19 mi West 8.9 mph - -   Scattered Clouds
9:00 PM 53.6 °F 46.4 °F 77% 29.77 in 6.2 mi West 9.2 mph - N/A   Partly Cloudy
9:30 PM 51.8 °F 46.4 °F 82% 29.77 in 6.2 mi SW 8.1 mph - N/A   Partly Cloudy
10:00 PM 52 °F 47 °F 76% 29.78 in 19 mi WSW 11.2 mph - -   Partly Cloudy
10:00 PM 51.8 °F 46.4 °F 82% 29.77 in 6.2 mi WSW 10.4 mph - N/A   Scattered Clouds
10:30 PM 51.8 °F 46.4 °F 82% 29.77 in 6.2 mi WSW 9.2 mph - N/A   Mostly Cloudy
11:00 PM 50 °F 47 °F 85% 29.78 in 19 mi WSW 8.9 mph - -   Partly Cloudy
11:00 PM 50.0 °F 46.4 °F 87% 29.77 in 6.2 mi WSW 9.2 mph - N/A   Mostly Cloudy
11:30 PM 50.0 °F 46.4 °F 87% 29.77 in 6.2 mi SW 9.2 mph - N/A   Scattered Clouds